Location: Aulnoy
(48.8410°N, 3.0967°E)
Time: 07:40:58
(UTC+00:00)

Cosmos 1386 Rocket - Pass Details

Date: 09 February 2023
Orbit: 929 x 1005 km, 83.0° (Epoch: 21 March)

Event Time Altitude Azimuth Distance (km) Brightness Sun altitude
Rises 18:03:54 0° 351° (N) 3,595 7.5 -11.3°
Reaches altitude 10° 18:06:23 10° 353° (N) 2,649 6.8 -11.7°
Maximum altitude 18:12:26 79° 80° (E) 958 4.4 -12.7°
Drops below altitude 10° 18:18:31 10° 168° (SSE) 2,661 6.7 -13.6°
Sets 18:21:01 0° 169° (S) 3,611 7.4 -14.1°
